Погода в Лас-Пальмас-де-Гран-Канария

Испания     28°07′49″N   15°26′24″W
темп.,
°C
ветер,
м/с
пор.,
м/с
влажн.,
%
обл.,
%
осадки,
мм/ч
давл.,
гПа
погр.,
м
14 апреля, ср
ср1401:00+20с128491 0.0 1020192
04:00+20сз24810 0.0 1018342
07:00+20сз67845 0.0 1017675
10:00+20сз7883100 0.0 1018663
13:00+20сз788410 0.0 1018682
16:00+20ссз67812 0.0 1017662
19:00+20ссз778113 0.2 1016775
22:00+20сз67818 0.1 1018791
15 апреля, чт
чт1501:00+20ссз777919 0.4 1017849
04:00+19сз777613 0.2 1016888
07:00+19ссз777716 0.4 1016901
10:00+20ссз667688 0.1 1017838
13:00+19ссз557870 0.3 1017704
16:00+20ссз6776100 0.1 1017821
19:00+20ссз67754 0.2 1017865
22:00+19ссз677799 0.1 1018850
16 апреля, пт
пт1601:00+19ссз567621 0.3 1018863
04:00+19с677620 0.2 1016918
07:00+19ссз677419 0.3 1016977
10:00+19с777422 0.1 10171012
13:00+19с567613 0.5 1018797
16:00+19с777623 0.4 1017882
19:00+19с787558 0.6 1017842
22:00+19с787938 0.4 1018843
17 апреля, сб
сб1701:00+19ссв677819 0.8 1019815
04:00+19ссв777821 0.3 1017854
07:00+19ссв677492 0.5 10181064
10:00+19ссв677687 0.3 1019708
13:00+20ссв567181 0.4 10191026
16:00+19ссв667210 0.0 1018979
19:00+19ссв667410 0.0 1019882
22:00+19ссв567610 0.0 1020884
18 апреля, вс
вс1801:00+19ссв667649 0.1 1020921
04:00+19ссв667543 0.0 1019913
07:00+18с56721 0.0 1019789
10:00+18ссв56732 0.0 1020802
13:00+19ссв56745 0.0 1020809
16:00+19ссв56743 0.0 1019777
19:00+19ссв66744 0.0 1020792
22:00+19ссв56730 0.0 1021745